This is the latest recevied weather packets stored in our database for station/object KI4BIY. If no packets are shown the sender has not sent any weather packets the latest 10 day(s).
| Time | Temp. | Humidity | Pressure | Rain* | Wind** | Luminosity | Snow |
|---|---|---|---|---|---|---|---|
| 1777585219 | 17.22° C | 51% | 1014.4 hPa | 0 mm | - | 101 W/m² | - |
| 1777584914 | 17.22° C | 51% | 1014.3 hPa | 0 mm | - | 100 W/m² | - |
| 1777584612 | 17.78° C | 50% | 1014.5 hPa | 0 mm | - | 108 W/m² | - |
| 1777584309 | 17.22° C | 51% | 1014.4 hPa | 0 mm | - | 107 W/m² | - |
| 1777584004 | 17.78° C | 51% | 1014.4 hPa | 0 mm | - | 120 W/m² | - |
| 1777583699 | 17.78° C | 51% | 1014.7 hPa | 0 mm | - | 112 W/m² | - |
| 1777583398 | 17.78° C | 52% | 1014.9 hPa | 0 mm | - | 111 W/m² | - |
| 1777583097 | 17.78° C | 58% | 1014.9 hPa | 0 mm | - | 118 W/m² | - |
| 1777582794 | 17.78° C | 55% | 1014.9 hPa | 0 mm | - | 117 W/m² | - |
| 1777582490 | 17.78° C | 52% | 1015.1 hPa | 0 mm | - | 110 W/m² | - |
| 1777582185 | 17.78° C | 49% | 1015.3 hPa | 0 mm | - | 135 W/m² | - |
| 1777581884 | 17.78° C | 49% | 1015.1 hPa | 0 mm | - | 141 W/m² | - |
| 1777581584 | 17.78° C | 53% | 1015.2 hPa | 0 mm | - | 137 W/m² | - |
| 1777581279 | 17.78° C | 50% | 1015.4 hPa | 0 mm | - | 205 W/m² | - |
| 1777580974 | 18.33° C | 53% | 1015.3 hPa | 0 mm | - | 176 W/m² | - |
| 1777580674 | 17.78° C | 52% | 1015.2 hPa | 0 mm | - | 203 W/m² | - |
| 1777580370 | 18.33° C | 50% | 1015.4 hPa | 0 mm | - | 155 W/m² | - |
| 1777580066 | 17.78° C | 53% | 1015.4 hPa | 0 mm | - | 298 W/m² | - |
| 1777579763 | 18.33° C | 55% | 1015.7 hPa | 0 mm | - | 207 W/m² | - |
| 1777579460 | 17.78° C | 48% | 1015.6 hPa | 0 mm | - | 276 W/m² | - |
| 1777579156 | 18.33° C | 51% | 1015.5 hPa | 0 mm | - | 218 W/m² | - |
| 1777578851 | 18.33° C | 47% | 1015.6 hPa | 0 mm | - | 298 W/m² | - |
| 1777578547 | 18.33° C | 52% | 1015.6 hPa | 0 mm | - | 367 W/m² | - |
| 1777578242 | 18.33° C | 52% | 1015.7 hPa | 0 mm | - | 315 W/m² | - |
| 1777577937 | 17.78° C | 54% | 1015.8 hPa | 0 mm | - | 313 W/m² | - |
* Rain latest hour (hover to see other rain measurements)
** Current wind speed in m/s (hover to see current wind gust speed)